Track STARLINK-64 now! 10-day predictions STARLINK-64 is classified as:
1 44275U 19029AS 21024.79026674 .00004506 00000-0 11349-3 0 9999 2 44275 52.9910 217.3533 0000612 37.4060 322.6986 15.42006408 92774